Location: Orange
(33.2833°S, 149.1000°E)
Time: 10:37:26
(UTC+11:00)

N. Korean satellite - Pass Details

Date: 08 December 2021
Orbit: 447 x 491 km, 97.3° (Epoch: 23 January)

Event Time Altitude Azimuth Distance (km) Brightness Sun altitude
Rises 04:51:38 0° 42° (NE) 2,484 10.2 -10.6°
Reaches altitude 10° 04:54:00 10° 59° (ENE) 1,628 9.5 -10.2°
Maximum altitude 04:56:39 21° 108° (ESE) 1,137 9.5 -9.8°
Drops below altitude 10° 04:59:22 10° 158° (SSE) 1,669 10.3 -9.3°
Sets 05:01:49 0° 174° (S) 2,568 10.9 -8.9°
